Temperature
20 20 20 20 19 19 19 18 18 18 18 18 18 18 18 17 18 18 17 17 17 17 17 17 17 17 17 17 17 17 17 17 17 18 17 17 17 16 16 16 16 16 16
20 20 20 20 20 19 19 18 18 18 18 18 18 18 18 18 18 17 17 17 17 17 17 17 17 17 17 17 17 17 17 17 17 17 17 17 16 16 16 16 16 16 16
20 20 20 20 20 19 19 19 19 19 18 18 18 18 18 18 18 18 17 17 17 17 17 17 17 17 17 17 17 17 17 17 16 17 17 16 16 16 16 16 16 16 16
20 20 20 20 20 19 19 19 19 19 18 18 18 18 18 17 17 17 17 17 17 17 17 17 17 16 16 16 17 16 16 16 16 16 16 16 16 16 16 16 16 16 15
20 20 20 20 20 19 19 19 19 19 18 18 18 18 17 17 17 17 17 17 17 17 17 16 16 17 17 16 16 16 16 16 16 16 16 16 16 16 16 16 16 15 15
20 20 20 19 19 19 19 19 19 19 18 18 18 18 17 17 18 17 17 17 16 16 16 16 16 16 16 16 16 16 16 16 16 16 16 16 15 15 15 15 15 15 15
20 20 19 19 19 19 19 18 18 18 18 18 18 18 17 17 17 17 17 17 16 16 16 16 16 16 16 16 16 16 16 16 15 15 15 15 15 15 15 15 15 15 15
20 19 19 19 19 19 18 18 18 18 18 18 18 17 17 17 17 17 17 17 16 16 16 16 16 16 15 15 15 15 15 15 15 15 15 15 15 15 15 15 14 14 14
19 19 19 19 19 19 18 18 18 18 17 17 17 17 17 17 17 17 17 16 16 16 16 16 16 15 15 15 15 15 15 15 15 15 15 15 15 15 14 14 14 14 14
19 19 19 19 19 18 18 18 18 17 17 17 17 17 17 17 17 17 16 16 16 16 16 15 15 15 15 15 15 15 14 14 14 14 14 14 14 14 14 14 14 14 14
19 19 19 19 18 18 18 18 17 17 17 17 17 17 17 16 16 16 16 16 16 15 15 15 15 15 15 15 15 14 14 14 14 14 14 14 14 14 14 14 13 13 13
18 18 18 18 18 17 17 17 17 17 17 17 16 16 16 16 16 16 16 15 15 15 15 15 15 15 15 15 14 14 14 14 14 14 14 14 14 13 13 13 13 13 13
18 18 17 17 17 17 17 17 17 17 16 16 16 16 16 16 15 16 15 15 15 15 15 15 15 14 14 14 14 14 14 14 13 13 13 13 13 13 13 13 13 13 13
17 17 17 17 16 16 16 16 16 16 16 16 16 16 16 15 15 15 15 15 14 14 14 14 14 14 14 13 13 13 13 13 13 13 13 13 13 13 13 13 13 12 13
17 17 16 16 16 16 16 16 16 16 16 16 15 15 15 15 15 15 15 14 14 14 14 14 14 14 14 14 13 13 13 13 13 13 13 13 13 13 12 12 12 12 12
17 16 16 16 16 16 16 16 16 16 16 16 15 15 15 15 15 15 14 14 14 14 13 13 13 13 13 13 13 13 12 12 12 12 12 12 12 12 12 12 12 12 12
16 16 16 16 16 16 16 16 16 16 15 15 15 15 15 14 14 14 14 14 14 13 13 13 13 13 13 13 13 12 12 12 12 12 12 12 11 11 11 11 11 11 11
16 16 16 16 16 16 16 15 15 15 15 15 15 15 14 14 14 14 14 13 13 13 13 13 13 13 13 12 12 12 12 12 11 11 11 11 11 11 11 11 11 10 11
15 15 15 15 15 15 15 15 15 15 15 15 15 14 14 14 13 13 13 13 13 13 13 13 13 12 12 12 12 11 11 11 11 11 11 10 10 10 10 10 10 10 10
15 15 15 15 15 15 15 15 15 15 15 14 14 14 13 13 13 13 13 12 12 12 12 12 12 12 12 11 11 11 11 11 10 10 10 10 10 10 10 10 10 10 9
15 15 14 14 14 14 14 14 14 14 14 14 13 13 13 13 13 13 12 12 12 12 12 12 11 11 11 11 11 11 10 10 10 10 10 9 9 9 9 9 9 9 9
14 14 14 14 14 14 14 14 14 13 13 13 13 13 12 12 12 12 12 12 12 11 11 11 11 11 11 10 10 10 10 10 9 9 9 9 9 8 9 9 9 9 8
14 14 14 13 13 13 13 13 13 13 13 13 13 12 12 12 12 11 11 11 11 11 10 10 10 10 10 9 9 9 9 9 9 8 8 8 8 8 8 8 8 8 8
13 13 13 13 13 13 13 13 12 12 12 12 12 12 11 11 11 11 11 10 10 10 10 9 9 9 9 9 9 8 8 8 8 8 8 8 8 7 7 7 7 8 8
13 13 13 13 13 12 12 12 12 12 11 11 11 11 11 11 10 10 10 10 9 9 9 9 8 8 8 8 8 8 8 8 7 7 7 7 7 7 7 7 7 7 7
12 12 12 12 12 12 12 11 11 11 11 11 10 10 10 10 10 10 9 9 9 9 8 8 8 8 8 7 7 7 7 7 7 7 7 7 7 6 6 6 6 7 7
Wind_Speed
8 7 7 7 7 7 6 6 5 5 5 5 5 5 5 5 5 5 5 5 6 6 6 5 6 5 5 5 5 5 5 6 6 5 4 2 4 5 3 5 6 6 7
8 8 7 7 6 7 6 6 5 5 6 6 6 6 6 6 6 6 6 6 6 6 6 5 6 5 5 6 5 5 5 5 7 7 5 4 5 5 5 6 6 6 6
7 7 7 7 7 7 6 6 6 6 6 6 6 6 6 6 6 6 6 6 6 6 6 5 5 5 5 5 5 6 6 6 6 7 7 4 5 4 5 6 6 5 7
7 7 7 7 7 7 6 6 6 6 6 6 6 6 6 6 6 6 6 6 6 6 6 6 5 5 5 5 5 6 6 6 6 7 7 6 5 4 5 6 6 6 6
7 7 7 7 7 6 6 6 6 6 6 6 6 6 6 6 5 5 6 7 6 6 6 6 5 4 4 5 5 5 5 6 6 7 7 6 5 4 5 6 6 5 5
6 6 6 6 6 7 6 6 6 6 6 5 6 6 6 5 2 3 6 6 6 6 6 6 5 5 5 5 5 5 6 7 7 7 7 6 6 6 5 6 6 6 6
6 6 6 6 6 6 6 6 6 6 6 6 6 6 6 5 3 4 6 7 7 6 6 6 6 5 5 6 5 7 7 8 8 9 9 9 7 6 7 8 7 7 7
6 6 6 6 6 6 6 6 6 5 5 6 6 6 6 5 4 4 5 7 7 7 7 7 6 6 6 5 6 6 7 7 8 8 8 9 8 7 7 8 8 8 7
5 5 6 6 5 6 6 6 5 5 5 5 5 5 5 4 4 4 5 6 6 6 6 6 6 6 3 3 6 6 7 7 6 7 8 8 7 7 7 6 6 7 7
5 5 5 5 5 5 5 5 5 5 5 5 5 5 6 5 5 5 6 5 5 6 5 5 5 5 3 3 6 6 7 6 6 5 5 7 8 7 9 8 7 7 7
4 4 4 4 5 4 4 4 4 5 5 5 5 5 6 5 5 6 6 5 5 6 5 4 3 4 4 5 7 7 7 7 7 6 5 5 4 4 5 6 6 7 7
3 4 4 4 4 4 4 4 4 5 5 5 5 5 5 5 5 6 7 7 6 6 6 5 3 3 5 6 6 6 6 7 6 5 5 5 5 5 4 5 5 7 7
4 4 4 4 4 4 4 5 5 5 5 5 5 5 5 4 4 7 9 9 8 7 5 3 2 4 6 6 8 8 7 6 6 6 6 6 5 5 5 4 5 6 8
4 4 4 5 5 4 4 4 4 4 5 5 5 5 5 4 4 3 4 5 7 7 7 5 6 8 8 6 5 6 6 5 6 6 6 6 5 5 5 5 6 5 6
4 4 4 4 4 4 4 3 4 3 3 4 5 5 5 5 3 2 4 4 4 4 4 5 5 5 5 5 5 5 5 5 6 6 6 6 6 6 6 5 5 6 6
4 4 4 4 4 4 4 4 3 4 3 4 4 5 4 3 1 2 4 5 4 3 4 6 6 6 6 5 5 5 5 5 6 6 6 7 6 7 6 6 5 6 7
4 3 4 4 4 4 4 4 4 4 6 6 7 6 6 5 4 4 4 4 4 5 5 6 6 6 6 5 6 6 6 5 5 6 6 7 7 7 6 6 6 6 7
3 3 4 4 4 4 4 4 4 4 4 4 5 8 7 7 6 6 5 4 3 4 5 6 6 6 6 6 6 6 6 6 6 6 6 7 7 7 7 7 6 7 7
3 3 3 3 3 4 4 4 4 4 4 4 4 3 6 6 6 6 5 4 5 5 5 6 6 6 6 6 6 6 6 6 6 6 6 6 6 6 6 7 7 7 7
3 3 4 4 4 4 4 4 4 3 4 4 4 3 2 3 3 3 3 4 5 5 6 6 6 6 6 6 6 6 6 6 6 5 5 6 6 6 7 8 7 7 7
3 3 4 5 4 4 4 3 3 4 4 4 3 2 2 3 4 4 4 4 5 5 5 5 5 6 6 6 6 6 6 6 5 5 5 6 6 6 6 6 6 6 6
3 3 3 3 3 3 4 4 4 3 4 4 3 2 3 3 3 3 4 4 4 4 4 4 5 5 5 5 5 6 6 6 5 5 5 5 6 6 6 6 6 5 6
3 3 3 3 3 3 4 4 3 3 3 3 3 2 3 3 4 3 4 4 4 4 4 4 5 5 4 4 4 4 5 5 4 5 5 6 6 6 6 7 7 7 6
3 3 3 3 3 3 3 3 3 3 3 3 3 3 3 3 3 3 4 4 4 4 4 4 4 5 5 4 4 4 4 5 6 5 7 7 7 7 7 7 7 7 7
3 3 3 4 4 3 3 3 2 3 3 3 3 3 3 3 3 3 4 4 4 4 4 4 3 4 5 4 4 4 4 5 6 7 6 6 7 8 8 8 7 7 7
3 3 3 3 3 3 3 3 3 3 3 3 3 3 3 3 3 4 3 4 4 4 4 4 4 5 5 4 4 4 3 3 5 7 7 6 7 7 7 6 8 7 7
Wind_Direction
202 205 210 210 211 213 218 221 220 224 220 225 226 227 231 232 235 238 248 246 248 251 251 248 253 267 270 266 256 254 257 261 265 270 265 246 243 263 248 247 242 235 215
199 202 208 211 211 214 214 217 219 221 222 221 225 228 232 234 237 239 244 248 251 253 257 259 259 258 257 265 264 260 259 260 261 269 268 256 245 248 252 255 252 244 247
200 203 204 209 209 212 213 212 214 216 220 223 224 228 234 238 239 242 245 251 254 255 257 257 260 262 261 263 263 263 261 258 257 262 264 260 254 250 253 253 252 250 253
201 204 204 208 211 211 209 210 212 214 216 222 226 231 236 240 243 245 247 252 256 257 257 256 258 261 262 263 260 263 267 266 257 258 262 258 250 245 249 254 252 240 248
204 209 209 209 210 211 209 210 211 214 216 217 225 228 233 235 242 249 252 251 255 256 256 256 257 267 285 278 282 280 274 268 264 260 259 261 259 257 255 258 261 260 249
206 210 207 207 209 211 209 209 211 215 218 217 221 226 230 235 208 251 261 261 258 258 259 261 257 243 243 235 255 269 278 270 273 270 265 265 264 263 267 265 264 262 265
203 204 203 206 210 213 214 211 215 219 219 223 226 228 233 233 196 220 244 258 258 259 260 262 269 266 254 262 240 227 239 245 255 266 271 271 272 271 270 265 262 263 268
197 199 200 204 208 210 216 219 220 221 223 228 230 233 238 228 187 217 234 244 254 255 255 254 260 268 269 273 272 270 266 254 246 249 265 270 272 275 266 263 265 259 261
199 203 203 207 210 213 218 221 222 225 228 230 231 230 235 225 186 204 235 247 249 252 254 254 257 258 256 268 267 270 273 273 247 241 253 263 274 268 267 266 259 256 262
207 206 205 208 212 215 221 224 219 219 226 231 230 231 233 233 192 198 230 254 260 263 256 254 250 255 241 236 258 266 268 273 280 269 254 252 254 243 229 240 254 258 267
210 203 200 206 213 212 210 211 213 217 223 231 237 238 236 235 204 198 218 253 266 270 269 263 252 190 218 234 253 263 269 278 278 275 271 266 260 256 243 238 248 256 264
204 205 202 204 215 203 198 205 211 219 221 225 233 244 243 232 221 199 202 232 271 266 269 271 268 173 216 237 248 264 270 268 269 273 273 271 269 267 262 256 249 254 262
197 205 205 204 211 210 204 210 214 219 234 238 241 248 254 252 219 189 203 221 239 254 271 303 289 234 231 233 235 243 249 256 264 267 269 271 271 272 268 256 251 248 251
204 206 208 208 210 207 216 218 224 232 242 248 254 260 263 256 256 234 233 233 227 241 260 250 226 231 239 252 242 233 242 257 265 267 271 273 274 269 262 263 263 262 263
210 213 216 216 215 217 221 232 232 237 251 260 266 265 266 264 271 289 259 249 251 250 253 251 254 251 246 246 251 252 253 249 251 260 267 270 269 267 266 264 265 270 268
212 217 224 228 223 232 229 229 193 225 204 228 260 278 279 298 333 262 266 276 270 241 239 251 254 256 258 260 260 258 256 260 264 266 268 269 270 270 269 266 265 264 266
222 225 238 238 233 235 235 239 245 227 212 223 232 238 250 272 262 243 244 254 244 211 231 252 260 265 269 269 267 268 267 269 271 269 271 273 275 274 274 270 266 264 265
235 224 238 242 245 250 250 249 250 258 264 261 227 209 219 232 237 236 230 222 232 221 246 258 262 265 266 268 269 270 271 271 266 267 272 273 272 273 274 272 268 270 271
253 250 255 266 259 257 255 256 256 261 267 271 279 224 195 207 211 219 214 241 256 254 256 260 265 268 268 269 272 273 274 274 273 272 273 275 277 276 275 275 273 263 264
255 250 260 268 269 263 256 257 265 264 264 267 271 282 263 235 244 233 230 255 266 270 273 274 275 277 276 277 277 277 277 275 275 274 279 279 277 276 273 272 273 272 267
271 252 233 258 265 268 270 268 266 266 266 266 272 277 277 265 269 273 265 260 265 274 279 283 286 284 280 277 275 271 270 272 273 275 276 275 275 274 272 272 272 275 277
271 269 262 263 268 271 276 272 268 264 264 269 275 254 197 255 276 280 284 285 286 283 284 283 285 289 293 288 283 281 278 280 284 283 281 280 278 277 277 275 275 274 271
269 268 266 265 266 253 255 262 263 263 266 269 272 276 276 280 283 288 295 298 298 299 297 292 289 292 296 298 299 297 297 301 303 301 293 285 279 274 272 271 271 273 269
273 273 275 274 267 263 262 266 268 271 273 275 276 277 281 289 292 299 303 306 305 302 303 303 304 310 312 316 317 322 338 334 319 301 293 287 282 280 277 275 273 271 269
276 274 276 276 272 269 271 275 277 278 282 284 281 282 289 295 300 303 301 302 304 305 308 308 307 309 307 312 326 338 4 357 330 312 291 282 280 279 279 277 276 276 273
280 276 277 276 277 279 274 270 269 272 278 283 285 288 290 294 303 304 306 309 310 312 317 322 324 321 316 315 321 338 0 339 318 308 295 284 283 281 281 278 277 273 271
Height
1528 1529 1530 1531 1532 1532 1533 1534 1534 1535 1535 1536 1536 1537 1537 1538 1537 1537 1538 1537 1537 1537 1537 1536 1536 1535 1535 1535 1535 1534 1534 1534 1532 1532 1532 1530 1529 1528 1528 1527 1526 1525 1524
1525 1526 1527 1528 1529 1530 1530 1531 1531 1532 1532 1533 1533 1534 1534 1535 1535 1535 1534 1535 1535 1534 1534 1534 1533 1533 1532 1532 1531 1531 1530 1530 1529 1528 1528 1527 1525 1525 1524 1523 1524 1523 1522
1523 1523 1524 1525 1526 1527 1527 1528 1528 1529 1529 1530 1530 1531 1531 1532 1532 1532 1532 1532 1532 1531 1531 1531 1530 1530 1529 1529 1528 1527 1527 1527 1525 1525 1524 1523 1522 1521 1521 1520 1520 1518 1518
1520 1520 1521 1521 1522 1523 1524 1525 1525 1525 1526 1526 1527 1527 1528 1528 1528 1529 1529 1528 1528 1528 1528 1527 1527 1526 1525 1525 1524 1523 1523 1522 1522 1521 1520 1519 1518 1517 1517 1517 1516 1515 1514
1516 1517 1518 1518 1519 1520 1521 1521 1522 1522 1523 1523 1524 1524 1525 1525 1526 1526 1525 1525 1525 1524 1524 1523 1523 1522 1521 1521 1521 1520 1520 1519 1519 1517 1516 1516 1515 1513 1513 1512 1512 1511 1510
1513 1514 1514 1515 1516 1517 1517 1518 1518 1519 1520 1520 1520 1520 1521 1522 1522 1521 1521 1522 1521 1521 1520 1520 1519 1518 1517 1517 1516 1515 1515 1515 1515 1514 1513 1512 1510 1510 1509 1508 1508 1507 1507
1509 1510 1511 1512 1513 1513 1514 1515 1515 1516 1516 1517 1517 1517 1517 1517 1517 1517 1517 1517 1517 1517 1516 1515 1515 1515 1514 1513 1512 1511 1510 1509 1509 1509 1508 1507 1506 1505 1504 1504 1503 1503 1502
1506 1507 1508 1509 1510 1510 1511 1511 1512 1512 1513 1513 1513 1513 1513 1513 1513 1513 1513 1512 1512 1512 1512 1511 1510 1510 1510 1508 1508 1507 1506 1505 1504 1503 1503 1502 1501 1500 1499 1499 1498 1498 1497
1503 1504 1505 1506 1506 1507 1508 1508 1509 1509 1509 1510 1510 1510 1510 1509 1509 1509 1509 1509 1508 1508 1507 1507 1506 1505 1505 1504 1503 1502 1501 1501 1500 1499 1498 1497 1496 1495 1495 1495 1494 1494 1493
1500 1501 1502 1502 1503 1504 1504 1505 1506 1506 1506 1506 1506 1506 1506 1506 1505 1506 1505 1505 1505 1504 1503 1503 1502 1501 1501 1500 1499 1498 1497 1497 1496 1494 1493 1492 1491 1490 1490 1490 1489 1490 1489
1497 1498 1499 1499 1500 1501 1501 1501 1502 1502 1503 1502 1502 1502 1502 1502 1502 1502 1502 1501 1501 1501 1500 1499 1498 1497 1496 1496 1496 1495 1494 1493 1491 1490 1489 1488 1487 1486 1486 1485 1485 1485 1485
1494 1495 1496 1496 1497 1498 1498 1498 1499 1499 1499 1499 1499 1499 1499 1499 1499 1498 1498 1497 1497 1497 1496 1495 1495 1493 1493 1492 1492 1491 1490 1489 1488 1487 1486 1485 1484 1483 1482 1481 1480 1480 1479
1492 1492 1493 1493 1494 1494 1495 1495 1496 1496 1497 1497 1497 1496 1496 1496 1495 1494 1494 1493 1493 1493 1492 1491 1491 1490 1489 1488 1488 1487 1486 1485 1484 1483 1482 1482 1481 1480 1479 1477 1476 1475 1475
1489 1489 1490 1491 1491 1492 1492 1492 1493 1494 1494 1494 1493 1493 1493 1492 1492 1491 1490 1490 1489 1489 1488 1487 1487 1486 1485 1484 1484 1483 1482 1481 1481 1480 1479 1478 1477 1476 1475 1474 1472 1471 1470
1486 1487 1488 1489 1489 1489 1489 1489 1489 1490 1490 1490 1490 1490 1489 1489 1488 1487 1487 1486 1485 1485 1484 1484 1483 1482 1481 1480 1479 1479 1478 1477 1476 1475 1475 1474 1473 1472 1471 1469 1468 1467 1466
1484 1485 1486 1487 1486 1487 1486 1487 1485 1486 1486 1486 1486 1486 1485 1484 1483 1483 1483 1482 1482 1481 1480 1480 1479 1478 1477 1477 1476 1475 1474 1473 1472 1472 1471 1470 1468 1467 1466 1465 1464 1463 1461
1482 1482 1483 1484 1484 1484 1484 1484 1483 1482 1482 1482 1482 1481 1481 1480 1480 1479 1478 1478 1477 1477 1476 1476 1475 1474 1474 1473 1472 1471 1470 1469 1468 1467 1466 1465 1464 1462 1461 1460 1458 1457 1456
1480 1480 1480 1481 1481 1480 1480 1480 1480 1479 1479 1479 1478 1477 1477 1476 1476 1475 1474 1474 1473 1472 1472 1471 1471 1470 1469 1469 1468 1467 1466 1465 1463 1462 1461 1460 1459 1457 1456 1454 1453 1452 1451
1477 1477 1478 1477 1477 1477 1476 1476 1475 1476 1476 1475 1475 1474 1472 1472 1471 1471 1470 1470 1469 1469 1468 1467 1466 1466 1465 1464 1463 1461 1460 1459 1458 1457 1456 1454 1453 1452 1450 1449 1448 1446 1446
1474 1474 1474 1474 1474 1474 1473 1473 1472 1472 1472 1472 1471 1470 1469 1468 1468 1468 1467 1466 1465 1465 1464 1463 1462 1461 1460 1459 1458 1456 1455 1454 1453 1452 1451 1450 1448 1447 1445 1444 1443 1442 1440
1472 1472 1471 1471 1471 1471 1470 1470 1469 1469 1468 1468 1467 1466 1465 1465 1465 1464 1463 1462 1461 1460 1459 1458 1457 1456 1455 1454 1453 1451 1450 1449 1448 1447 1445 1444 1443 1441 1440 1439 1438 1437 1435
1470 1469 1468 1468 1468 1468 1467 1467 1466 1465 1465 1465 1464 1463 1462 1462 1461 1461 1460 1459 1458 1457 1455 1454 1453 1452 1451 1449 1448 1446 1445 1444 1443 1441 1440 1439 1437 1436 1435 1434 1433 1431 1430
1466 1466 1466 1466 1465 1464 1464 1464 1463 1462 1462 1462 1461 1460 1459 1459 1458 1457 1456 1455 1454 1453 1451 1450 1448 1447 1446 1444 1443 1442 1441 1439 1438 1436 1435 1434 1433 1431 1430 1429 1427 1427 1426
1463 1463 1463 1462 1462 1461 1461 1460 1460 1459 1459 1459 1458 1457 1456 1456 1455 1454 1453 1452 1450 1449 1447 1446 1444 1443 1441 1440 1439 1437 1436 1434 1433 1432 1430 1429 1428 1426 1425 1424 1423 1422 1421
1460 1459 1459 1459 1459 1458 1458 1457 1457 1456 1456 1456 1455 1454 1453 1452 1451 1450 1449 1448 1446 1445 1444 1442 1440 1438 1437 1435 1434 1433 1431 1429 1428 1427 1425 1424 1423 1421 1420 1419 1418 1417 1416
1457 1457 1456 1456 1456 1455 1455 1454 1454 1453 1453 1453 1452 1451 1450 1449 1448 1447 1445 1444 1443 1441 1440 1438 1437 1435 1433 1431 1430 1428 1426 1425 1423 1422 1421 1419 1418 1417 1415 1414 1413 1412 1411